Theta_e
300 294 290 294 296 292 292 289 287 290 295 293 293 294 297 301 298 298 298 299 301 303 307 307 308 309 313 317 320 319 320 322 323 321 319 319 320 321 320 322 323 323 324 324
293 289 294 297 298 295 292 289 288 291 294 291 289 289 293 296 296 298 299 300 300 301 301 304 306 307 310 314 319 321 321 321 323 323 322 322 322 322 323 323 322 323 323 324
287 290 296 296 294 293 292 290 289 289 291 290 287 285 288 293 295 297 299 300 300 300 300 302 303 304 304 306 310 318 321 321 322 323 322 320 319 317 318 319 320 322 323 324
292 295 294 293 292 293 288 293 293 291 288 282 287 276 285 288 289 291 293 293 297 298 298 300 302 301 301 303 305 309 316 321 323 322 321 321 320 318 320 321 322 322 323 323
287 290 290 290 292 295 291 295 292 290 286 284 283 281 283 286 287 291 294 294 291 295 297 297 298 299 299 303 305 306 308 310 319 322 322 321 320 322 322 320 319 320 322 323
288 292 293 292 295 296 295 291 289 288 285 276 283 282 279 283 287 288 291 291 294 293 295 297 299 301 302 302 303 304 304 305 308 310 319 321 321 321 321 321 320 321 321 322
285 288 291 293 290 293 291 286 273 272 273 275 281 281 281 286 288 289 291 291 292 295 296 296 298 298 298 298 299 299 299 300 301 303 306 310 317 321 322 323 323 322 321 321
278 276 287 292 290 288 289 288 279 271 271 274 280 277 282 288 291 291 292 294 295 296 296 297 296 295 296 296 296 297 298 299 300 301 302 304 306 311 318 322 324 324 324 324
281 281 288 291 292 292 287 285 288 279 269 273 277 280 286 289 290 289 291 294 294 295 295 295 294 295 295 295 296 297 298 298 299 300 300 301 302 304 307 312 318 322 324 325
286 280 287 290 292 291 289 292 282 278 267 266 274 276 279 282 287 289 290 291 292 292 293 294 293 294 295 295 296 296 297 298 299 300 300 301 301 302 303 304 306 308 310 312
287 283 282 288 285 286 286 285 286 285 280 273 270 274 282 286 287 289 290 291 291 291 291 291 292 294 295 295 295 296 297 298 298 299 300 300 301 302 302 302 303 304 306 308
288 284 278 282 287 290 290 285 286 278 275 278 278 278 287 287 287 289 290 291 291 290 290 290 292 294 294 294 295 296 296 297 298 299 299 300 301 301 301 301 302 303 304 306
290 283 273 278 283 285 285 288 289 286 283 279 275 278 287 287 287 289 289 289 290 289 289 291 292 293 292 293 295 296 296 297 298 298 299 299 300 300 301 301 302 302 301 301
294 283 282 277 280 284 282 286 287 287 280 279 280 281 284 285 287 288 288 289 289 290 291 292 292 292 292 294 294 294 295 296 297 297 297 298 299 300 300 301 301 301 302 301
290 280 283 285 282 285 284 284 286 283 285 281 283 282 287 288 287 286 288 289 289 289 290 291 291 291 292 293 293 294 294 295 295 295 295 295 297 298 298 298 298 299 299 299
289 278 283 277 284 282 281 285 286 286 286 285 285 284 291 292 291 291 292 292 289 289 290 291 290 291 293 294 293 293 293 293 293 292 292 294 293 293 293 294 295 295 295 296
287 281 276 278 283 281 277 281 284 285 287 286 282 287 291 290 290 290 291 290 290 292 291 291 290 292 292 293 293 292 292 292 291 290 291 291 290 290 290 291 291 291 293 295
285 284 282 280 277 273 283 288 286 285 286 288 288 288 290 292 293 294 294 291 292 291 291 291 290 291 292 292 291 291 290 289 288 287 288 287 287 287 287 289 290 291 292 293
289 286 282 278 277 279 279 284 284 283 283 288 288 290 291 293 291 292 293 294 294 292 293 292 292 292 291 290 289 288 286 285 284 284 284 285 285 285 287 287 288 290 291 291
288 289 284 280 276 274 283 286 289 289 280 288 289 289 290 289 285 289 293 294 292 293 291 291 291 290 289 287 286 284 283 282 282 283 284 284 284 285 286 287 288 289 289 289
282 283 280 281 278 275 284 286 288 277 281 291 291 291 291 288 291 293 289 289 290 290 290 290 288 287 286 284 283 283 282 281 283 283 283 283 284 285 286 287 288 288 288 288
281 280 279 280 278 274 285 282 281 287 289 287 290 291 291 291 292 292 290 289 289 289 288 287 285 284 284 284 283 282 281 282 281 281 281 281 283 285 286 286 287 287 287 286
279 284 282 282 282 286 286 287 288 288 288 289 289 286 289 289 287 288 289 288 287 286 285 284 282 281 282 281 280 279 280 280 280 279 278 279 281 285 286 286 286 286 286 286
282 285 284 282 285 289 291 293 293 289 288 288 288 288 286 287 286 286 286 285 285 284 283 280 278 278 277 276 277 276 277 278 275 274 276 279 281 283 285 286 286 285 285 285
283 284 281 280 284 284 286 290 292 290 286 286 286 286 287 286 286 286 285 284 284 282 280 278 277 276 274 274 273 273 274 273 272 273 275 277 279 282 284 286 286 286 286 286
281 280 280 279 285 286 287 288 287 287 285 286 286 286 287 286 285 284 280 280 278 277 275 274 273 272 271 270 270 271 269 269 268 270 272 274 276 278 282 284 285 288 288 289
Wind_Speed
2 3 10 19 8 3 5 3 2 3 1 3 5 5 11 10 5 9 10 11 12 14 13 6 7 6 7 7 8 10 13 14 10 7 6 4 8 7 5 7 10 9 10 11
3 11 6 3 4 7 2 2 5 5 2 3 5 9 10 15 8 10 16 16 17 11 9 9 7 7 5 5 9 11 14 13 13 10 8 7 7 8 8 7 7 10 12 12
7 6 11 7 5 7 6 6 4 5 6 2 3 7 6 10 10 10 17 16 11 15 14 14 9 7 5 5 7 8 9 10 13 15 5 3 3 1 3 4 6 11 14 14
8 6 8 10 11 9 7 7 6 3 2 4 3 7 7 9 12 9 15 10 12 11 9 10 8 6 5 1 3 4 6 7 7 7 6 10 10 10 10 10 10 10 13 14
9 5 6 9 7 10 5 6 6 3 3 2 3 3 8 5 9 19 21 16 8 12 9 8 8 7 3 6 5 5 6 5 2 5 6 7 7 7 6 4 7 9 10 13
7 2 8 7 7 9 6 6 7 5 3 4 10 9 5 7 11 7 8 8 9 8 7 5 6 7 7 5 6 6 7 4 3 1 6 8 8 9 6 7 7 8 8 9
1 10 2 3 6 3 3 8 2 4 0 9 1 7 7 8 12 7 7 6 5 7 8 7 8 7 6 7 7 5 5 4 4 2 3 6 8 8 11 11 9 9 8 8
7 5 11 7 7 8 11 10 7 9 6 4 4 9 9 11 11 7 7 5 7 8 7 8 8 6 6 5 4 3 5 5 6 6 7 4 6 5 6 9 9 8 9 10
8 7 2 3 5 10 5 11 7 5 2 3 6 8 10 9 8 6 8 7 8 7 7 8 6 5 4 3 2 2 3 5 6 6 5 7 6 6 6 8 6 8 9 8
7 2 4 14 4 4 6 8 3 2 2 5 6 6 9 1 8 6 9 9 7 6 8 6 5 3 2 2 1 2 1 2 4 6 5 5 7 7 7 6 8 9 11 10
5 4 2 6 9 17 6 5 4 6 6 6 2 8 9 15 8 9 6 9 9 8 6 5 3 3 2 0 1 1 2 4 6 6 6 7 7 7 7 6 8 9 10 12
7 4 5 9 4 5 13 7 10 6 4 5 1 12 5 8 9 10 11 9 7 7 5 4 6 5 4 5 2 1 2 3 5 6 6 7 7 8 7 7 8 8 10 12
14 5 2 4 5 1 10 13 15 4 3 12 6 9 2 1 4 8 10 8 7 5 5 6 4 6 6 4 4 2 5 6 6 5 6 7 8 7 8 8 9 10 9 10
15 5 17 16 8 11 12 19 19 18 7 6 19 9 5 4 7 5 6 5 6 6 9 7 5 8 6 6 4 2 2 3 5 6 6 7 8 8 8 10 11 10 11 12
11 11 14 21 2 9 10 18 22 20 28 15 24 17 17 14 9 5 7 6 7 9 8 8 8 8 6 4 1 1 3 3 3 4 5 6 7 7 8 9 8 9 10 11
6 7 9 6 13 6 4 17 22 28 30 19 27 23 15 12 9 17 21 18 8 8 9 9 7 6 6 3 1 2 3 4 3 5 6 7 8 8 8 9 9 10 11 11
14 8 5 15 14 5 6 19 24 21 25 23 26 31 17 17 17 17 17 9 10 12 10 10 9 9 7 6 3 2 5 5 7 8 9 10 10 11 10 10 10 11 13 13
12 17 9 12 6 16 15 17 13 21 22 22 21 11 15 27 19 18 14 10 17 11 10 9 7 7 6 5 2 2 3 5 6 8 9 10 11 13 12 13 14 14 13 15
15 16 11 11 16 8 3 11 21 19 29 23 21 27 25 25 7 31 9 17 16 14 13 11 8 7 6 6 4 3 3 5 6 7 8 9 9 11 12 14 14 14 15 16
13 16 16 7 21 24 24 17 15 16 17 10 22 27 25 7 12 23 10 15 17 15 8 10 9 6 6 5 4 2 3 4 6 7 8 9 10 12 13 14 14 12 12 15
17 16 20 21 15 6 9 13 14 14 13 26 21 23 23 14 21 18 4 5 7 7 10 8 8 8 7 5 5 3 5 6 6 6 7 8 9 13 14 14 11 12 13 14
13 9 13 9 13 10 13 7 14 20 12 9 18 22 22 16 18 17 10 9 9 9 9 7 6 5 3 1 0 4 5 5 5 7 8 10 10 11 11 12 11 10 11 14
9 10 4 6 3 1 4 7 7 7 11 16 19 7 15 16 13 15 13 10 10 9 7 5 5 3 2 2 2 3 4 6 9 9 11 12 11 12 11 11 11 8 9 10
3 3 12 3 8 18 21 24 25 12 17 12 10 12 10 13 9 9 7 8 9 8 7 5 4 3 4 3 2 3 5 5 7 10 11 11 12 12 11 8 7 7 7 8
3 3 6 5 8 6 9 15 19 12 6 7 7 9 12 10 8 9 8 8 8 6 4 5 5 5 3 2 3 5 5 6 8 8 8 10 10 12 11 10 9 7 7 7
5 7 6 8 8 6 6 7 4 8 10 12 10 7 7 9 9 5 4 4 4 5 3 1 2 1 3 3 4 7 5 6 6 8 7 6 8 11 9 10 9 12 14 10
Wind_Direction
217 147 201 202 180 129 126 132 231 258 262 326 251 271 276 274 261 270 277 263 252 252 269 252 254 250 218 202 191 193 187 201 183 184 183 196 212 209 213 213 209 193 206 208
97 228 215 156 178 219 220 279 265 279 261 196 297 285 269 277 251 233 253 256 256 262 275 275 237 236 219 207 209 194 197 191 193 192 203 202 193 220 221 213 207 208 208 209
173 222 179 181 187 197 231 208 221 226 331 329 306 284 250 278 270 253 253 256 247 249 251 262 252 229 208 234 223 198 213 198 197 200 171 100 86 79 189 208 206 213 212 214
248 248 177 184 212 179 216 200 212 197 357 243 51 286 299 264 270 283 272 245 243 243 239 243 252 251 212 176 62 167 181 180 197 178 183 198 203 209 220 217 218 220 213 219
217 206 188 200 196 175 221 176 204 173 184 348 198 272 255 281 266 259 264 270 236 235 227 239 249 250 227 136 115 86 84 85 168 180 187 199 221 230 245 221 220 216 218 218
219 203 178 199 189 179 150 89 48 48 83 272 200 188 251 214 221 260 277 263 232 228 203 147 105 105 91 93 85 68 51 34 59 196 211 204 215 229 229 232 225 229 224 223
252 236 286 182 130 112 152 120 8 354 314 235 204 197 244 259 252 230 275 249 129 118 111 115 111 96 74 62 49 44 42 355 349 17 231 240 241 233 233 235 234 237 233 228
159 284 185 209 185 177 188 169 163 199 198 250 130 233 250 236 261 251 255 171 130 134 134 132 119 99 80 68 62 37 13 339 341 335 319 289 245 234 236 241 242 242 236 236
171 247 176 196 157 149 182 207 163 93 39 60 226 277 298 252 255 189 192 171 152 141 138 131 127 116 93 44 35 16 351 330 330 320 316 309 294 258 247 250 241 247 251 248
204 201 207 196 125 240 181 144 135 43 214 256 255 260 236 274 239 215 195 189 185 155 142 149 101 102 141 172 50 12 328 271 294 315 305 294 290 287 269 256 256 257 265 266
197 163 309 123 210 186 147 182 193 157 177 203 250 253 222 226 216 193 202 193 181 165 163 148 164 180 191 284 219 240 336 340 330 325 314 315 299 284 277 266 264 262 269 266
188 143 181 199 292 212 212 201 182 175 214 234 219 257 250 229 238 185 196 199 176 167 179 195 190 205 203 202 207 255 356 355 315 311 312 306 300 306 299 288 278 271 265 270
180 195 94 4 326 307 209 216 208 160 106 217 159 260 324 50 197 203 163 170 180 192 192 197 210 211 202 214 242 306 3 336 326 328 323 314 306 301 297 294 297 298 285 276
175 158 211 205 192 146 197 208 208 209 221 206 230 246 302 237 221 171 143 176 213 211 191 202 219 218 210 201 217 62 320 291 302 315 309 300 296 294 298 303 302 301 301 297
181 206 214 235 196 181 192 198 203 209 227 205 246 236 229 251 218 222 243 237 220 187 201 213 218 211 215 199 78 96 227 246 251 275 277 273 279 283 288 287 287 288 287 285
195 236 187 242 241 201 177 203 208 215 229 231 254 258 238 253 263 275 272 269 250 244 257 266 241 209 210 216 307 335 330 326 344 324 308 307 307 309 303 298 297 297 294 293
191 185 152 238 226 172 230 216 210 220 226 211 232 237 260 261 240 234 243 230 238 242 232 239 209 201 193 193 163 324 322 337 341 328 323 322 322 320 316 311 309 305 300 295
186 199 191 243 112 222 232 221 204 216 228 224 246 258 233 250 252 247 235 211 238 226 230 241 202 189 188 162 158 266 330 333 328 316 316 317 317 314 315 313 311 306 302 299
199 197 215 223 225 250 304 203 197 199 238 221 218 239 240 251 298 268 197 233 237 224 221 213 180 171 171 172 166 179 318 327 318 297 295 294 294 298 301 300 298 296 297 300
228 216 211 186 233 228 225 222 206 198 246 213 214 236 240 157 240 266 213 223 225 228 181 164 164 159 161 181 163 171 262 227 240 250 261 272 279 281 286 283 287 288 285 286
208 210 221 221 223 257 240 236 133 172 220 234 224 230 240 206 225 254 179 179 199 180 163 144 154 174 191 173 160 213 233 245 242 248 260 269 269 283 280 277 278 283 288 290
209 212 219 215 226 217 222 77 175 212 223 228 232 227 238 237 244 253 220 197 171 164 150 154 160 189 206 167 43 314 302 299 303 296 292 284 282 292 290 279 282 283 288 293
202 207 232 209 248 187 157 216 239 219 213 232 235 196 215 234 233 223 219 178 176 168 151 151 169 192 293 332 58 326 294 328 319 307 298 293 291 290 287 276 280 287 289 291
262 167 220 161 210 234 251 249 246 224 228 238 223 222 188 218 236 203 184 172 165 169 169 154 149 177 250 320 303 241 292 301 297 289 287 293 293 295 291 280 277 275 283 291
204 152 180 245 256 238 240 242 256 268 259 245 231 209 201 181 211 186 175 178 171 161 147 147 174 178 203 228 248 270 269 271 276 276 284 290 292 291 295 280 274 270 261 270
188 193 188 212 191 182 239 262 231 215 218 224 203 213 219 188 180 157 99 97 114 136 131 131 35 48 259 224 244 266 255 263 270 293 290 292 298 294 288 284 284 259 253 298